SCP
0 0 0 0 0 0 0 0 0 0 0 0 0 0 0 0 0 0 0 0 0 0 0 0 0 0 0 0 0 0 0 0 0 0 0 0 0 0 0 0 0 0 0
0 0 0 0 0 0 0 0 0 0 0 0 0 0 0 0 0 0 0 0 0 0 0 0 0 0 0 0 0 0 0 0 0 0 0 0 0 0 0 0 0 0 0
0 0 0 0 0 0 0 0 0 0 0 0 0 0 0 0 0 0 0 0 0 0 0 0 0 0 0 0 0 0 0 0 0 0 0 0 0 0 0 0 0 0 0
0 0 0 0 0 0 0 0 0 0 0 0 0 0 0 0 0 0 0 0 0 0 0 0 0 0 0 0 0 0 0 0 0 0 0 0 0 0 0 0 0 0 0
0 0 0 0 0 0 0 0 0 0 0 0 0 0 0 0 0 0 0 0 0 0 0 0 0 0 0 0 0 0 0 0 0 0 0 0 0 0 0 0 0 0 0
0 0 0 0 0 0 0 0 0 0 0 0 0 0 0 0 0 0 0 0 0 0 0 0 0 0 0 0 0 0 0 0 0 0 0 0 0 0 0 0 0 0 0
0 0 0 0 0 0 0 0 0 0 0 0 0 0 0 0 0 0 0 0 0 0 0 0 0 0 0 0 0 0 0 0 0 0 0 0 0 0 0 0 0 0 0
0 0 0 0 0 0 0 0 0 0 0 0 0 0 0 0 0 0 0 0 0 0 0 0 0 0 0 0 0 0 0 0 0 0 0 0 0 0 0 0 0 0 0
0 0 0 0 0 0 0 0 0 0 0 0 0 0 0 0 0 0 0 0 0 0 0 0 0 0 0 0 0 0 0 0 0 0 0 0 0 0 0 0 0 0 0
0 0 0 0 0 0 0 0 0 0 0 0 0 0 0 0 0 0 0 0 0 0 0 0 0 0 0 0 0 0 0 0 0 0 0 0 0 0 0 0 0 0 0
0 0 0 0 0 0 0 0 0 0 0 0 0 0 0 0 0 0 0 0 0 0 0 0 0 0 0 0 0 0 0 0 0 0 0 0 0 0 0 0 0 0 0
0 0 0 0 0 0 0 0 0 0 0 0 0 0 0 0 0 0 0 0 0 0 0 0 0 0 0 0 0 0 0 0 0 0 0 0 0 0 0 0 0 0 0
0 0 0 0 0 0 0 0 0 0 0 0 0 0 0 0 0 0 0 0 0 0 0 0 0 0 0 0 0 0 0 0 0 0 0 0 0 0 0 0 0 0 0
0 0 0 0 0 0 0 0 0 0 0 0 0 0 0 0 0 0 0 0 0 0 0 0 0 0 0 0 0 0 0 0 0 0 0 0 0 0 0 0 0 0 0
0 0 0 0 0 0 0 0 0 0 0 0 0 0 0 0 0 0 0 0 0 0 0 0 0 0 0 0 0 0 0 0 0 0 0 0 0 0 0 0 0 0 0
0 0 0 0 0 0 0 0 0 0 0 0 0 0 0 0 0 0 0 0 0 0 0 0 0 0 0 0 0 0 0 0 0 0 0 0 0 0 0 0 0 0 0
0 0 0 0 0 0 0 0 0 0 0 0 0 0 0 0 0 0 0 0 0 0 0 0 0 0 0 0 0 0 0 0 0 0 0 0 0 0 0 0 0 0 0
0 0 0 0 0 0 0 0 0 0 0 0 0 0 0 0 0 0 0 0 0 0 0 0 0 0 0 0 0 0 0 0 0 0 0 0 0 0 0 0 0 0 0
0 0 0 0 0 0 0 0 0 0 0 0 0 0 0 0 0 0 0 0 0 0 0 0 0 0 0 0 0 0 0 0 0 0 0 0 0 0 0 0 0 0 0
0 0 0 0 0 0 0 0 0 0 0 0 0 0 0 0 0 0 0 0 0 0 0 0 0 0 0 0 0 0 0 0 0 0 0 0 0 0 0 0 0 0 0
0 0 0 0 0 0 0 0 0 0 0 0 0 0 0 0 0 0 0 0 0 0 0 0 0 0 0 0 0 0 0 0 0 0 0 0 0 0 0 0 0 0 0
0 0 0 0 0 0 0 0 0 0 0 0 0 0 0 0 0 0 0 0 0 0 0 0 0 0 0 0 0 0 0 0 0 0 0 0 0 0 0 0 0 0 0
0 0 0 0 0 0 0 0 0 0 0 0 0 0 0 0 0 0 0 0 0 0 0 0 0 0 0 0 0 0 0 0 0 0 0 0 0 0 0 0 0 0 0
0 0 0 0 0 0 0 0 0 0 0 0 0 0 0 0 0 0 0 0 0 0 0 0 0 0 0 0 0 0 0 0 0 0 0 0 0 0 0 0 0 0 0
0 0 0 0 0 0 0 0 0 0 0 0 0 0 0 0 0 0 0 0 0 0 0 0 0 0 0 0 0 0 0 0 0 0 0 0 0 0 0 0 0 0 0
0 0 0 0 0 0 0 0 0 0 0 0 0 0 0 0 0 0 0 0 0 0 0 0 0 0 0 0 0 0 0 0 0 0 0 0 0 0 0 0 0 0 0
Wind_Speed
7 7 7 7 7 7 6 6 5 5 5 4 4 3 3 3 2 2 1 2 2 3 3 3 5 4 4 4 4 4 6 7 14 12 4 4 5 6 6 7 7 9 9
6 7 7 7 7 7 6 6 5 5 5 4 4 4 4 3 3 3 3 3 3 4 4 4 5 4 5 4 4 5 6 6 10 16 9 5 6 6 7 8 7 7 8
6 7 8 7 7 7 6 6 6 5 5 5 5 4 4 4 4 4 3 4 4 4 4 4 5 5 5 4 5 5 5 6 7 11 13 7 5 5 7 7 8 7 8
7 8 8 7 7 6 6 6 6 5 5 5 5 4 4 4 3 4 4 4 5 5 5 5 5 5 6 5 5 5 5 6 7 9 11 10 7 6 5 7 8 6 7
7 8 7 6 6 6 6 5 5 5 5 4 4 4 4 3 3 4 4 5 5 6 5 5 5 6 7 7 6 6 6 7 7 8 10 10 9 6 6 5 9 9 8
8 7 6 6 6 6 5 4 5 4 4 4 4 3 3 3 6 7 6 4 5 6 7 6 6 6 7 10 12 12 10 9 9 9 10 11 12 9 8 7 9 10 11
7 6 5 5 6 5 4 4 4 4 4 4 3 3 4 5 8 9 8 5 5 6 6 6 6 5 6 6 10 12 11 13 14 11 12 13 12 10 10 11 10 11 12
7 6 5 5 5 4 4 4 3 3 3 3 3 4 4 6 10 11 10 5 5 6 6 6 7 7 6 8 7 8 8 8 10 8 9 11 11 9 9 10 11 11 10
6 5 4 4 4 4 4 3 3 3 3 3 3 4 5 7 10 11 11 4 5 7 6 6 7 7 12 14 10 9 10 8 10 13 15 15 18 18 13 8 8 8 9
5 4 4 3 3 3 2 2 2 3 3 4 4 4 5 6 10 12 11 4 6 7 6 6 7 8 13 15 9 9 11 10 7 8 9 11 10 10 12 7 7 7 7
4 4 4 3 2 2 1 1 2 3 4 4 5 5 5 5 9 11 11 4 5 7 7 6 6 13 16 17 14 9 12 12 8 8 7 6 5 4 4 4 4 5 6
4 4 3 2 1 1 1 2 2 3 4 4 5 5 4 4 5 9 12 11 11 7 8 7 8 16 18 18 13 12 15 11 5 6 6 5 5 4 4 4 4 4 4
4 3 2 1 1 1 1 2 2 2 2 3 4 5 5 4 5 11 11 14 15 9 8 14 16 18 17 11 12 13 8 5 5 5 5 5 4 4 4 3 3 3 3
4 3 2 1 1 1 1 1 2 2 3 3 4 5 6 5 4 4 4 6 9 9 8 9 14 15 12 10 7 6 4 4 4 4 4 4 4 3 4 3 3 3 3
3 2 2 1 1 1 1 2 3 3 4 5 4 5 6 7 8 13 11 8 7 8 9 7 6 5 4 4 4 4 3 3 3 3 3 4 3 3 4 3 3 3 2
3 2 1 1 1 1 2 3 6 7 9 11 11 10 7 12 17 17 18 18 17 16 9 6 6 5 5 4 4 4 3 3 3 3 3 3 3 3 4 3 3 2 2
3 2 1 0 0 1 2 3 5 6 8 10 11 13 13 15 16 17 17 16 14 12 6 5 5 5 4 4 3 3 3 3 3 3 3 3 3 3 3 3 3 2 2
2 2 1 1 0 1 2 2 3 4 6 5 8 12 14 14 15 15 14 11 6 4 3 4 5 4 4 3 3 3 3 3 2 2 2 2 2 2 2 2 2 2 2
2 2 1 1 1 1 2 3 3 4 5 6 6 6 9 12 13 12 10 4 4 4 4 4 4 3 3 3 3 3 3 2 2 2 2 2 2 2 2 2 2 2 2
2 3 2 1 1 2 2 3 3 4 4 5 5 5 4 4 4 5 4 3 4 4 4 4 4 3 3 3 3 2 2 2 2 2 2 2 2 2 1 2 2 2 2
3 2 3 2 2 2 2 3 3 4 4 5 5 7 11 5 4 5 4 4 4 4 4 4 3 3 3 2 2 3 3 2 2 2 2 2 2 2 1 1 1 1 1
3 2 2 2 2 2 3 3 3 4 5 6 5 6 11 5 4 4 4 4 4 4 3 3 3 3 3 3 3 3 3 3 2 2 2 2 1 1 1 1 1 1 1
3 3 2 2 2 3 3 3 4 4 5 5 5 5 5 4 5 5 5 4 4 4 3 3 4 3 3 3 3 3 4 4 3 2 2 2 2 1 1 1 1 1 1
3 3 3 2 2 3 3 3 4 4 5 5 5 5 5 5 5 6 5 4 4 4 4 3 4 5 6 4 3 3 3 4 3 2 3 3 2 2 2 2 2 2 1
3 3 3 3 3 3 3 4 4 4 5 5 5 5 5 5 5 5 5 5 5 5 5 5 4 4 6 6 5 5 6 7 5 3 3 3 3 3 2 2 2 2 2
3 3 3 3 3 3 4 4 5 5 5 5 5 5 6 6 6 6 5 5 5 5 5 5 5 6 6 6 7 8 8 8 7 6 4 3 4 3 3 3 3 2 2
Wind_Direction
86 86 86 82 78 77 76 72 69 63 55 53 50 50 45 38 27 17 346 332 298 289 284 274 273 270 267 263 256 255 256 262 279 288 273 276 274 271 271 262 259 260 263
88 87 86 82 79 77 73 65 64 63 55 50 48 48 42 32 24 17 352 339 322 310 304 295 288 291 281 279 274 271 269 266 278 290 294 290 281 281 279 276 270 265 263
87 87 83 77 74 73 68 62 58 57 53 46 44 43 35 26 21 14 353 334 320 311 308 301 298 300 291 289 286 283 282 283 280 287 293 293 287 284 287 282 275 273 272
88 87 82 76 73 70 65 59 54 51 47 39 35 30 24 18 20 9 351 334 319 311 306 300 296 293 290 295 292 287 290 289 285 284 289 294 292 287 285 290 292 278 275
93 87 81 76 71 66 60 53 51 49 44 35 29 18 11 9 13 357 341 326 317 310 303 296 292 293 291 290 289 289 290 287 288 287 289 294 295 302 295 292 292 296 285
92 86 80 77 71 64 57 51 50 45 35 30 25 9 357 348 345 345 340 322 312 305 303 302 299 295 292 295 293 291 288 288 290 287 289 290 295 298 300 300 301 301 297
94 89 82 79 73 61 55 53 46 35 25 19 10 357 341 332 341 337 335 319 301 295 296 300 300 295 292 290 294 296 292 286 284 283 285 287 293 298 300 298 292 289 288
99 91 82 78 74 62 56 49 35 26 14 358 345 337 328 323 331 329 328 315 296 292 290 289 291 295 293 298 295 291 287 284 285 281 277 285 290 291 285 286 289 290 286
100 93 81 77 75 62 51 32 19 3 348 337 324 323 317 314 323 323 325 308 300 297 290 287 287 290 296 304 300 294 293 288 291 289 288 290 294 297 297 294 291 291 294
103 97 85 76 72 61 39 13 359 341 326 324 315 309 299 298 311 318 320 302 299 301 297 289 283 287 297 302 295 291 293 296 297 298 296 296 295 296 300 290 287 288 293
105 100 87 71 64 61 30 359 341 333 326 316 306 301 295 291 305 315 317 310 295 300 299 297 293 299 300 300 298 287 288 298 297 295 296 296 297 296 297 294 288 284 288
102 95 85 68 49 52 19 350 340 328 318 312 310 309 302 300 305 311 315 313 310 299 295 296 295 299 300 300 298 292 298 302 294 293 296 298 304 308 310 310 309 306 297
99 96 93 73 49 38 8 343 332 320 310 312 313 310 311 312 312 316 316 315 313 305 293 295 300 302 302 300 298 301 303 292 289 291 294 300 303 305 309 310 313 317 332
115 109 97 75 46 24 338 310 303 303 304 303 304 304 304 303 302 303 301 305 304 300 295 293 298 300 298 297 299 303 298 290 289 290 295 301 310 315 316 316 317 323 331
118 112 99 81 40 333 307 279 282 256 255 281 280 281 294 298 297 305 307 300 296 288 297 292 289 291 288 292 299 302 302 304 301 301 301 308 314 318 320 328 327 336 340
126 116 104 83 23 332 319 310 302 297 296 294 292 291 286 290 301 305 306 304 305 304 301 289 290 291 292 295 297 302 307 311 312 309 305 310 316 322 326 333 340 349 349
134 136 135 109 9 328 326 322 317 320 313 309 309 308 304 306 309 310 310 309 307 308 295 289 290 292 293 292 295 299 302 309 313 313 316 321 323 324 328 336 347 358 1
139 150 161 181 240 286 292 294 295 302 309 307 310 310 312 315 316 317 320 321 313 312 294 291 291 293 295 296 296 298 301 309 314 316 318 323 327 326 331 338 346 352 349
158 162 167 192 240 259 270 276 277 280 284 293 300 306 313 315 318 321 331 323 306 302 301 298 298 299 299 297 297 297 296 298 310 315 316 325 330 335 338 345 347 353 357
177 180 178 201 235 252 260 268 275 279 284 288 292 298 303 307 311 313 315 304 299 297 297 296 298 301 302 299 298 295 293 293 303 309 312 321 329 334 336 337 337 338 344
171 180 191 208 226 237 250 260 269 275 279 283 284 291 303 301 290 289 291 288 286 288 290 289 287 290 294 298 299 297 292 288 292 296 300 308 320 328 331 332 328 337 349
172 179 190 209 226 238 250 257 263 268 274 280 286 297 305 302 286 281 279 279 277 277 279 280 280 279 279 279 280 280 281 280 281 285 287 290 297 310 319 323 326 324 324
179 187 201 217 228 243 254 256 260 265 271 276 283 287 288 284 280 277 277 278 278 278 278 273 273 276 273 268 264 262 264 265 261 255 260 264 268 271 272 271 269 285 291
184 193 205 221 232 240 249 258 262 266 271 275 277 279 277 277 277 277 275 275 274 273 271 268 266 268 272 276 271 266 262 263 256 240 240 245 252 255 252 250 252 246 256
187 193 206 219 230 241 252 259 262 266 269 271 273 275 276 274 274 272 271 271 272 272 272 270 267 266 267 270 271 269 271 274 266 237 225 228 232 234 236 240 240 238 237
191 198 209 219 229 237 245 255 261 265 266 268 270 272 274 274 273 271 270 269 271 271 272 269 263 264 267 269 268 270 269 268 259 240 218 215 220 226 224 231 229 228 228